[TLELIST] Archives

 

[list_settings.list_name] Current TLEs

May 1st 2010 PST

HST 1 20580U 90037B 10110.59790984 .00000546 00000-0 28962-4 0 5530 2 20580 028.4707 255.8109 0003219 312.8116 047.2138 15.00954638896090 ISS (ZARYA) 1 25544U 98067A 10111.49552507 .00013653 00000-0 93719-4 0 162 2 25544 051.6458 161.5382 0003274 189.7157 311.2420 15.75046047654547 CXO 1 25867U 99040B 10110.91666667 .00000445 00000-0 10000-3 0 4543 2 25867 066.8584 056.3706 8071880 275.1976 003.1428 00.37803957 6177 ____________________________________________________________________ These 2-Line ...Continue Reading

[list_settings.list_name] Current TLEs

April 30th 2010 PST

HST 1 20580U 90037B 10110.59790984 .00000546 00000-0 28962-4 0 5530 2 20580 028.4707 255.8109 0003219 312.8116 047.2138 15.00954638896090 ISS (ZARYA) 1 25544U 98067A 10111.49552507 .00013653 00000-0 93719-4 0 162 2 25544 051.6458 161.5382 0003274 189.7157 311.2420 15.75046047654547 CXO 1 25867U 99040B 10110.91666667 .00000445 00000-0 10000-3 0 4543 2 25867 066.8584 056.3706 8071880 275.1976 003.1428 00.37803957 6177 ____________________________________________________________________ These 2-Line ...Continue Reading

[list_settings.list_name] Current TLEs

April 29th 2010 PST

HST 1 20580U 90037B 10110.59790984 .00000546 00000-0 28962-4 0 5530 2 20580 028.4707 255.8109 0003219 312.8116 047.2138 15.00954638896090 ISS (ZARYA) 1 25544U 98067A 10111.49552507 .00013653 00000-0 93719-4 0 162 2 25544 051.6458 161.5382 0003274 189.7157 311.2420 15.75046047654547 CXO 1 25867U 99040B 10110.91666667 .00000445 00000-0 10000-3 0 4543 2 25867 066.8584 056.3706 8071880 275.1976 003.1428 00.37803957 6177 ____________________________________________________________________ These 2-Line ...Continue Reading

[list_settings.list_name] Current TLEs

April 28th 2010 PST

HST 1 20580U 90037B 10110.59790984 .00000546 00000-0 28962-4 0 5530 2 20580 028.4707 255.8109 0003219 312.8116 047.2138 15.00954638896090 ISS (ZARYA) 1 25544U 98067A 10111.49552507 .00013653 00000-0 93719-4 0 162 2 25544 051.6458 161.5382 0003274 189.7157 311.2420 15.75046047654547 CXO 1 25867U 99040B 10110.91666667 .00000445 00000-0 10000-3 0 4543 2 25867 066.8584 056.3706 8071880 275.1976 003.1428 00.37803957 6177 ____________________________________________________________________ These 2-Line ...Continue Reading

[list_settings.list_name] Current TLEs

April 27th 2010 PST

HST 1 20580U 90037B 10110.59790984 .00000546 00000-0 28962-4 0 5530 2 20580 028.4707 255.8109 0003219 312.8116 047.2138 15.00954638896090 ISS (ZARYA) 1 25544U 98067A 10111.49552507 .00013653 00000-0 93719-4 0 162 2 25544 051.6458 161.5382 0003274 189.7157 311.2420 15.75046047654547 CXO 1 25867U 99040B 10110.91666667 .00000445 00000-0 10000-3 0 4543 2 25867 066.8584 056.3706 8071880 275.1976 003.1428 00.37803957 6177 ____________________________________________________________________ These 2-Line ...Continue Reading

[list_settings.list_name] Current TLEs

April 26th 2010 PST

HST 1 20580U 90037B 10110.59790984 .00000546 00000-0 28962-4 0 5530 2 20580 028.4707 255.8109 0003219 312.8116 047.2138 15.00954638896090 ISS (ZARYA) 1 25544U 98067A 10111.49552507 .00013653 00000-0 93719-4 0 162 2 25544 051.6458 161.5382 0003274 189.7157 311.2420 15.75046047654547 CXO 1 25867U 99040B 10110.91666667 .00000445 00000-0 10000-3 0 4543 2 25867 066.8584 056.3706 8071880 275.1976 003.1428 00.37803957 6177 ____________________________________________________________________ These 2-Line ...Continue Reading

[list_settings.list_name] Current TLEs

April 25th 2010 PST

HST 1 20580U 90037B 10110.59790984 .00000546 00000-0 28962-4 0 5530 2 20580 028.4707 255.8109 0003219 312.8116 047.2138 15.00954638896090 ISS (ZARYA) 1 25544U 98067A 10111.49552507 .00013653 00000-0 93719-4 0 162 2 25544 051.6458 161.5382 0003274 189.7157 311.2420 15.75046047654547 CXO 1 25867U 99040B 10110.91666667 .00000445 00000-0 10000-3 0 4543 2 25867 066.8584 056.3706 8071880 275.1976 003.1428 00.37803957 6177 ____________________________________________________________________ These 2-Line ...Continue Reading

[list_settings.list_name] Current TLEs

April 24th 2010 PST

HST 1 20580U 90037B 10110.59790984 .00000546 00000-0 28962-4 0 5530 2 20580 028.4707 255.8109 0003219 312.8116 047.2138 15.00954638896090 ISS (ZARYA) 1 25544U 98067A 10111.49552507 .00013653 00000-0 93719-4 0 162 2 25544 051.6458 161.5382 0003274 189.7157 311.2420 15.75046047654547 CXO 1 25867U 99040B 10110.91666667 .00000445 00000-0 10000-3 0 4543 2 25867 066.8584 056.3706 8071880 275.1976 003.1428 00.37803957 6177 ____________________________________________________________________ These 2-Line ...Continue Reading

[list_settings.list_name] Current TLEs

April 23rd 2010 PST

HST 1 20580U 90037B 10110.59790984 .00000546 00000-0 28962-4 0 5530 2 20580 028.4707 255.8109 0003219 312.8116 047.2138 15.00954638896090 ISS (ZARYA) 1 25544U 98067A 10111.49552507 .00013653 00000-0 93719-4 0 162 2 25544 051.6458 161.5382 0003274 189.7157 311.2420 15.75046047654547 CXO 1 25867U 99040B 10110.91666667 .00000445 00000-0 10000-3 0 4543 2 25867 066.8584 056.3706 8071880 275.1976 003.1428 00.37803957 6177 ____________________________________________________________________ These 2-Line ...Continue Reading

[list_settings.list_name] Current TLEs

April 22nd 2010 PST

HST 1 20580U 90037B 10110.59790984 .00000546 00000-0 28962-4 0 5530 2 20580 028.4707 255.8109 0003219 312.8116 047.2138 15.00954638896090 ISS (ZARYA) 1 25544U 98067A 10111.49552507 .00013653 00000-0 93719-4 0 162 2 25544 051.6458 161.5382 0003274 189.7157 311.2420 15.75046047654547 CXO 1 25867U 99040B 10110.91666667 .00000445 00000-0 10000-3 0 4543 2 25867 066.8584 056.3706 8071880 275.1976 003.1428 00.37803957 6177 ____________________________________________________________________ These 2-Line ...Continue Reading
  • This mailing list is a public mailing list - anyone may join or leave, at any time.
  • This mailing list is announce-only.

International Space Station (ISS) / Hubble Space Telescope (HST) / Chandra X-Ray Observatory Orbital Data via EMAIL

Privacy Policy:

Private list